This is the latest recevied weather packets stored in our database for station/object I2HLY-3. If no packets are shown the sender has not sent any weather packets the latest 10 day(s).
| Time | Temp. | Humidity | Pressure | Rain* | Wind** | Luminosity | Snow |
|---|---|---|---|---|---|---|---|
| 1777505551 | 13.89° C | 90% | 1018.8 hPa | 2.03 mm | - | - | - |
| 1777504637 | 13.89° C | 89% | 1018.7 hPa | 2.03 mm | - | - | - |
| 1777503738 | 13.89° C | 88% | 1018.5 hPa | 1.02 mm | - | - | - |
| 1777502839 | 15° C | 82% | 1018.4 hPa | 0 mm | - | - | - |
| 1777501945 | 16.11° C | 77% | 1018.4 hPa | 0 mm | - | - | - |
| 1777501047 | 16.11° C | 75% | 1018 hPa | 0 mm | - | - | - |
| 1777500146 | 16.67° C | 73% | 1017.8 hPa | 0 mm | - | - | - |
| 1777499247 | 16.67° C | 73% | 1017.5 hPa | 0 mm | - | - | - |
| 1777498352 | 16.67° C | 72% | 1017 hPa | 0 mm | - | - | - |
| 1777497453 | 16.67° C | 72% | 1016.9 hPa | 0 mm | - | - | - |
| 1777496555 | 16.67° C | 71% | 1016.7 hPa | 0 mm | - | - | - |
| 1777495638 | 17.22° C | 70% | 1016.6 hPa | 0 mm | - | - | - |
| 1777494740 | 17.22° C | 69% | 1016.6 hPa | 0 mm | - | - | - |
| 1777493841 | 17.22° C | 69% | 1016.5 hPa | 0 mm | - | - | - |
| 1777492946 | 17.78° C | 69% | 1016.2 hPa | 0 mm | - | - | - |
| 1777492047 | 17.78° C | 69% | 1016 hPa | 0 mm | - | - | - |
| 1777491145 | 18.33° C | 68% | 1015.8 hPa | 0 mm | - | - | - |
| 1777490251 | 18.33° C | 68% | 1015.5 hPa | 0 mm | - | - | - |
| 1777489351 | 18.33° C | 68% | 1015.2 hPa | 0 mm | - | - | - |
| 1777488451 | 18.89° C | 67% | 1014.9 hPa | 0 mm | - | - | - |
| 1777487537 | 18.89° C | 69% | 1014.9 hPa | 0 mm | - | - | - |
| 1777486639 | 18.89° C | 70% | 1014.5 hPa | 0 mm | - | - | - |
| 1777485738 | 18.89° C | 68% | 1014.3 hPa | 0 mm | - | - | - |
| 1777484843 | 18.89° C | 68% | 1014 hPa | 0 mm | - | - | - |
| 1777483945 | 18.89° C | 67% | 1013.8 hPa | 0 mm | - | - | - |
* Rain latest hour (hover to see other rain measurements)
** Current wind speed in m/s (hover to see current wind gust speed)